Flag for U.S.A. Weather past 2 weeks in Tacoma, Washington, U.S.A.

Now
62 °F

Overcast.


Feels Like: 62 °F
Forecast: 59 / 71 °F
Wind: 9 mph from South

Location: Tacoma Narrows Airport

Current Time: Sep 19, 2014 at 3:39:45 AM

Latest Report: Sep 19, 2014 at 2:53 AM


Visibility: 10 mi

Pressure: 30.00 "Hg

Humidity: 83%

Dew point: 57 °F

Location of TacomaLocation

Historic Weather in Tacoma — Graph

°F

Tacoma temperature yesterday

Maximum temperature yesterday: 69 °F (at 3:55 PM)
Minimum temperature yesterday: 58 °F (at 5:02 AM)
Average temperature yesterday: 63 °F

Past Weeks' High & Low Weather Summary

 TemperatureHumidityPressure
High85 °F (Sep 6, 4:53 PM)97% (Sep 7, 7:53 AM)30.28 "Hg (Sep 7, 7:53 AM)
Low52 °F (Sep 4, 4:53 AM)15% (Sep 13, 3:53 PM)29.70 "Hg (Sep 17, 5:53 PM)
Average64 °F60%29.96 "Hg
* Reported Sep 4 1:53 AM — Sep 19 1:53 AM, Tacoma, Weather by CustomWeather, © 2014

Note: Actual official high and low records may vary slightly from our data, if they occured in-between our weather recording intervals... More about our weather records

Advertising

Tacoma weather history for previous 24 hours

 ConditionsComfort  
Time TempWeatherWind HumidityBarometerVisibility
1:53 AM
Sep 19
62 °FMostly cloudy.8 mph83%29.99 "Hg10 mi
12:53 AM62 °FPassing clouds.8 mph83%29.98 "Hg10 mi
11:53 PM
Sep 18
62 °FPassing clouds.7 mph80%29.97 "Hg10 mi
10:53 PM63 °FOvercast.5 mph78%29.98 "Hg10 mi
9:53 PM64 °FMostly cloudy.8 mph75%29.96 "Hg10 mi
9:01 PM64 °FMostly cloudy.6 mph75%29.94 "Hg10 mi
7:53 PM65 °FOvercast.9 mph73%29.91 "Hg10 mi
6:53 PM65 °FScattered clouds.7 mph70%29.89 "Hg10 mi
5:53 PM66 °FBroken clouds.9 mph70%29.89 "Hg10 mi
4:53 PM68 °FBroken clouds.10 mph65%29.87 "Hg10 mi
3:55 PM69 °FBroken clouds.10 mph63%29.87 "Hg10 mi
2:53 PM68 °FBroken clouds.10 mph65%29.85 "Hg10 mi
1:53 PM65 °FMostly cloudy.3 mph76%29.85 "Hg10 mi
12:53 PM64 °FMostly cloudy.9 mph78%29.84 "Hg10 mi
11:53 AM64 °FBroken clouds.10 mph81%29.84 "Hg10 mi
10:58 AM62 °FMore clouds than sun.7 mph86%29.83 "Hg10 mi
9:53 AM61 °FCloudy.6 mph93%29.81 "Hg9 mi
8:53 AM60 °FCloudy.7 mph93%29.79 "Hg7 mi
7:53 AM59 °FFog.3 mph96%29.77 "Hg5 mi
6:53 AM59 °FMostly cloudy.3 mph96%29.75 "Hg7 mi
5:53 AM59 °FFog.5 mph96%29.74 "Hg5 mi
5:02 AM58 °FFog.No wind97%29.74 "Hg1 mi
4:53 AM59 °FFog.No wind93%29.74 "Hg1 mi
3:53 AM59 °FFog.No wind96%29.73 "Hg5 mi
Weather by CustomWeather, © 2014

See weather overviewHow to use our weather pages